Las Vegas, NM

11:10 PM MDT on October 19, 2017 (GMT -0600)
Las Vegas Municipal

Weather History for KLVS - May, 2013

Change the Weather History Date:

Sunday, May 12, 2013

  Actual Average Record
Temperature  
Mean Temperature 54 °F -  
Max Temperature 71 °F 70 °F 87 °F (1984)
Min Temperature 37 °F 39 °F 27 °F (1953)
Degree Days  
Heating Degree Days 11    
Growing Degree Days 4 (Base 50)    
Moisture  
Dew Point 26 °F    
Average Humidity 36    
Maximum Humidity 70    
Minimum Humidity 17    
Precipitation  
Precipitation 0.00 in - - ()
Sea Level Pressure  
Sea Level Pressure 30.14 in    
Wind  
Wind Speed 6 mph (SW)    
Max Wind Speed 14 mph    
Max Gust Speed 25 mph    
Visibility 10 miles    
Events      
Averages and records for this station are not official NWS values.
T = Trace of Precipitation, MM = Missing Value Source: NWS Daily Summary

Daily Weather History Graph

Daily Weather History Graph

Search for Another Location

Airport or City:

Trip Planner

Search our weather history database for the weather conditions in past years. The results will help you decide how hot, cold, wet, or windy it might be!

Date:

Astronomy

May. 12, 2013 Rise Set
Actual Time 5:57 AM MDT 7:56 PM MDT
Civil Twilight 5:29 AM MDT 8:24 PM MDT
Nautical Twilight 4:55 AM MDT 8:59 PM MDT
Astronomical Twilight 4:18 AM MDT 9:35 PM MDT
Moon 7:56 AM MDT (5/12) 10:24 PM MDT (5/12)
Length of Visible Light 14h 55m
Length of Day
13h 58m
Waxing Crescent, 7% of the Moon is Illuminated
May 12
Waxing Crescent
May 17
First Quarter
May 24
Full
May 31
Last Quarter
Jun 8
New

Hourly Weather History & Observations

Time (MDT) Temp. Windchill Dew Point Humidity Pressure Visibility Wind Dir Wind Speed Gust Speed Precip Events Conditions
12:53 AM 46.9 °F - 30.9 °F 54% 30.22 in 10.0 mi SSW 5.8 mph - N/A   Clear
1:53 AM 43.0 °F - 30.0 °F 60% 30.23 in 10.0 mi Calm Calm - N/A   Clear
2:53 AM 42.1 °F 38.4 °F 30.0 °F 62% 30.23 in 10.0 mi West 5.8 mph - N/A   Clear
3:53 AM 39.9 °F 35.8 °F 28.9 °F 65% 30.22 in 10.0 mi WSW 5.8 mph - N/A   Clear
4:53 AM 37.9 °F 31.5 °F 28.0 °F 68% 30.21 in 10.0 mi SSW 9.2 mph - N/A   Clear
5:53 AM 37.0 °F 29.8 °F 28.0 °F 70% 30.22 in 10.0 mi SSW 10.4 mph - N/A   Clear
6:53 AM 42.1 °F 37.1 °F 30.0 °F 62% 30.21 in 10.0 mi SSW 8.1 mph - N/A   Clear
7:53 AM 50.0 °F - 30.9 °F 48% 30.21 in 10.0 mi Calm Calm - N/A   Clear
8:53 AM 57.0 °F - 28.9 °F 34% 30.18 in 10.0 mi Calm Calm - N/A   Clear
9:53 AM 62.1 °F - 28.0 °F 28% 30.17 in 10.0 mi North 9.2 mph - N/A   Clear
10:53 AM 66.0 °F - 23.0 °F 20% 30.12 in 10.0 mi NE 8.1 mph - N/A   Clear
11:53 AM 64.9 °F - 21.0 °F 19% 30.10 in 10.0 mi Variable 6.9 mph - N/A   Mostly Cloudy
12:53 PM 66.0 °F - 21.0 °F 18% 30.09 in 10.0 mi NNE 13.8 mph 20.7 mph N/A   Mostly Cloudy
1:53 PM 69.1 °F - 21.9 °F 17% 30.08 in 10.0 mi Variable 6.9 mph - N/A   Scattered Clouds
2:53 PM 66.9 °F - 19.9 °F 17% 30.07 in 10.0 mi Variable 4.6 mph - N/A   Mostly Cloudy
3:35 PM 66.2 °F - 24.8 °F 21% 30.30 in 10.0 mi Variable 6.9 mph 25.3 mph N/A   Overcast
3:53 PM 71.1 °F - 25.0 °F 18% 30.06 in 10.0 mi North 8.1 mph 18.4 mph N/A   Mostly Cloudy
4:53 PM 66.0 °F - 24.1 °F 20% 30.09 in 10.0 mi ESE 10.4 mph 17.3 mph 0.00 in   Mostly Cloudy
5:53 PM 64.9 °F - 25.0 °F 22% 30.09 in 10.0 mi Calm Calm - N/A   Mostly Cloudy
6:53 PM 66.0 °F - 25.0 °F 21% 30.06 in 10.0 mi SSW 3.5 mph - N/A   Mostly Cloudy
7:53 PM 60.1 °F - 25.0 °F 26% 30.06 in 10.0 mi WSW 5.8 mph - N/A   Partly Cloudy
8:53 PM 57.9 °F - 27.0 °F 31% 30.06 in 10.0 mi SW 4.6 mph - N/A   Clear
9:53 PM 57.0 °F - 28.0 °F 33% 30.06 in 10.0 mi SW 3.5 mph - N/A   Clear
10:53 PM 51.1 °F - 26.1 °F 38% 30.07 in 10.0 mi Calm Calm - N/A   Clear
11:53 PM 50.0 °F - 26.1 °F 39% 30.09 in 10.0 mi ENE 8.1 mph - N/A   Clear